Location: Saint-Hippolyte
(43.6394°N, 4.7559°E)
Time: 14:51:31
(UTC+00:00)

Aureole 3 Rocket - Pass Details

Date: 24 October 2020
Orbit: 399 x 1739 km, 82.5° (Epoch: 23 November)

Event Time Altitude Azimuth Distance (km) Brightness Sun altitude
Rises 17:12:31 0° 146° (SE) 2,476 5.9 -6.1°
Reaches altitude 10° 17:14:50 10° 126° (SE) 1,726 5.0 -6.5°
Maximum altitude 17:17:28 19° 81° (E) 1,423 4.3 -6.9°
Drops below altitude 10° 17:20:38 10° 37° (NE) 2,124 5.4 -7.5°
Sets 17:23:52 0° 21° (NNE) 3,305 6.5 -8.1°
